Temperature
26 27 28 29 30 31 31 31 31 31 30 31 31 31 30 29 28 28 27 26 25 24 23 22 21 21 20 20 20 20 20 20 20 19 19 19 19 18 18 18 18 18 18 18
26 27 29 30 29 29 30 30 30 30 30 30 31 31 30 29 29 28 27 26 25 24 23 22 21 21 21 20 20 20 20 20 20 19 19 19 19 18 18 18 18 19 18 18
27 28 28 28 28 28 29 30 30 30 29 30 30 30 30 30 28 28 27 27 26 25 24 22 21 21 21 21 21 20 20 20 20 19 19 18 19 18 18 18 18 18 18 18
27 27 27 27 28 28 29 30 30 29 29 30 30 30 30 30 29 29 28 27 27 26 24 23 22 21 21 21 21 21 21 20 20 20 19 19 19 19 19 18 18 18 18 18
26 26 26 27 28 28 29 29 29 29 29 30 30 30 31 30 30 30 29 28 27 26 25 24 23 22 22 22 21 21 21 21 20 20 20 19 19 19 19 18 18 18 18 18
27 27 27 28 28 28 28 28 28 29 29 28 29 29 30 31 30 31 30 28 27 27 25 24 24 22 22 22 21 21 21 21 21 20 20 19 19 19 18 18 18 18 18 18
25 26 27 28 27 27 28 28 27 27 28 28 29 29 30 31 31 30 30 29 28 27 26 25 24 23 22 21 21 21 21 21 21 20 20 20 19 19 19 18 18 18 18 18
25 25 26 27 28 27 28 28 28 28 28 29 28 29 30 30 29 28 28 28 27 26 26 25 24 23 22 21 21 21 21 21 21 20 20 20 19 19 19 18 18 18 18 18
26 26 27 27 28 28 27 28 30 29 29 29 29 29 29 29 29 28 28 27 27 26 26 25 24 23 22 21 21 21 21 21 21 20 20 20 19 19 19 19 19 18 18 18
27 26 26 27 27 28 29 29 28 28 27 28 29 29 30 29 29 29 28 27 26 26 25 24 23 23 22 21 21 20 20 20 20 20 20 19 19 19 19 19 18 18 18 18
27 26 26 26 26 27 27 28 28 29 29 28 28 29 30 30 29 29 28 27 26 25 25 24 23 22 21 21 20 20 20 19 19 19 19 19 19 19 19 19 18 18 18 18
26 27 26 26 27 28 28 28 28 27 27 28 29 29 29 29 29 28 27 26 25 24 24 23 23 22 21 20 20 20 19 19 19 19 19 19 19 18 18 18 18 18 18 18
26 25 25 25 26 26 27 28 28 28 28 28 28 29 28 28 28 27 26 25 24 23 23 22 22 21 20 20 20 19 19 19 19 19 19 19 18 18 18 18 18 18 18 18
25 25 26 26 27 27 26 27 28 28 28 28 28 29 28 28 28 27 25 24 24 23 22 21 21 20 20 19 19 19 19 19 18 18 18 18 18 18 18 18 18 18 17 17
25 25 26 27 27 27 27 27 27 27 28 28 29 29 29 28 28 26 25 24 23 22 21 21 20 20 19 19 19 19 18 18 18 18 18 18 18 18 18 17 17 17 17 17
24 25 25 25 26 27 27 27 27 28 28 28 29 29 29 27 26 25 24 23 23 22 21 20 19 19 19 19 19 18 18 18 18 18 17 17 17 17 17 17 17 17 17 17
24 24 24 25 26 26 25 27 27 27 28 28 28 28 27 26 25 24 23 22 22 21 20 19 19 18 18 19 18 18 18 18 17 17 17 17 17 17 17 16 16 16 16 16
23 23 24 25 25 24 26 27 27 27 27 28 28 27 27 25 24 23 22 21 21 20 19 18 18 18 18 18 18 17 17 17 17 17 17 16 16 16 16 16 16 16 16 16
23 23 24 25 24 25 25 25 26 26 26 26 26 26 24 23 23 22 21 20 19 19 18 18 18 18 17 17 17 17 17 17 17 16 16 16 16 16 16 16 16 16 15 15
21 22 24 24 24 24 25 25 24 25 25 25 25 24 23 23 25 23 19 19 18 18 17 17 17 17 17 17 17 17 16 16 16 16 16 16 16 16 16 16 15 15 15 15
22 22 23 24 24 25 24 23 23 24 24 23 23 23 22 23 23 20 18 18 17 17 17 16 16 17 16 16 16 16 16 16 15 15 15 15 16 15 15 15 15 14 14 14
22 23 22 23 23 24 22 23 24 22 20 21 21 21 21 20 19 18 17 17 17 16 16 16 16 16 16 16 16 15 15 15 15 15 15 15 15 15 15 14 14 14 14 14
21 22 23 23 23 21 20 20 19 19 19 20 20 20 19 18 18 17 16 16 16 16 15 15 15 15 15 15 15 15 14 14 14 14 14 14 14 14 14 14 14 14 13 13
20 19 20 21 21 20 19 18 18 18 18 18 18 18 18 17 17 16 15 15 15 15 15 15 15 15 15 15 14 14 14 14 14 14 14 14 13 13 13 13 13 13 13 13
19 19 20 20 20 19 18 18 17 17 17 17 17 17 17 16 16 15 15 15 14 14 14 14 14 14 14 14 14 14 14 13 13 13 13 13 13 13 13 13 13 12 12 12
19 19 20 20 19 19 18 17 16 17 16 16 16 16 16 16 15 15 14 14 14 14 14 14 13 14 13 13 13 13 13 13 13 13 13 12 12 12 12 12 11 11 11 11
Wind_Speed
11 12 15 16 16 10 10 12 12 8 5 8 10 8 8 9 11 12 13 14 15 15 15 15 14 14 14 13 13 13 13 12 10 9 9 8 8 7 6 6 7 8 7 8
11 16 14 11 12 10 11 13 11 7 5 7 9 10 8 9 11 12 13 14 15 15 15 15 15 15 15 14 14 14 14 13 13 10 8 7 6 6 6 6 6 8 8 9
17 9 12 12 14 14 14 13 11 9 6 7 8 12 11 10 10 11 12 13 14 15 16 16 17 17 16 16 16 14 15 14 14 12 9 7 6 6 6 7 7 8 9 10
14 8 13 16 16 15 14 10 9 9 10 9 10 11 12 11 11 13 13 13 14 15 16 16 17 18 18 17 16 15 15 14 14 13 12 12 10 9 8 7 7 7 9 9
12 12 15 17 16 15 10 8 9 10 11 10 11 11 9 10 12 13 13 14 14 15 16 16 17 17 17 17 16 16 15 15 14 14 13 12 11 9 7 7 7 7 7 9
9 10 13 13 12 13 9 10 7 9 11 14 13 12 10 10 12 11 10 12 13 14 15 15 15 15 15 15 15 15 16 16 15 15 14 13 12 10 9 9 8 8 7 7
11 12 11 11 14 15 14 13 9 10 11 11 10 11 9 5 6 8 8 9 10 12 13 14 14 15 14 15 16 15 16 15 15 15 14 13 13 11 11 10 9 8 7 7
15 15 15 14 16 14 18 18 11 10 12 9 8 11 7 4 4 5 6 6 7 9 11 12 13 13 13 14 14 14 15 14 14 14 14 13 12 10 9 10 8 8 7 6
14 12 15 14 14 14 18 18 13 9 8 9 9 7 6 5 6 6 6 6 6 8 9 11 11 11 12 12 13 13 13 13 13 13 12 11 11 10 9 8 9 7 6 6
8 10 14 13 12 12 13 15 10 10 10 11 10 11 8 10 9 7 6 6 5 6 7 8 9 9 9 10 10 10 11 11 11 11 11 10 11 10 9 8 8 7 6 6
9 10 13 15 15 17 13 17 13 12 10 10 9 7 4 7 6 6 6 5 5 5 6 6 7 7 8 8 9 9 9 9 9 9 9 9 9 9 9 8 7 7 6 6
10 9 12 15 10 10 16 15 16 13 10 10 8 4 6 4 4 5 5 6 5 5 5 6 6 7 7 7 7 8 8 8 9 8 8 8 8 8 8 7 7 6 6 6
10 8 11 12 11 11 15 15 16 14 10 11 11 5 7 5 4 5 5 6 6 5 5 5 6 6 7 7 7 7 7 7 7 8 8 7 7 7 7 7 6 6 5 5
8 9 11 11 11 16 16 16 16 15 12 12 13 7 7 6 5 5 6 6 6 6 5 6 6 6 6 6 6 6 6 6 6 6 7 6 6 6 6 5 5 5 4 4
8 9 8 4 5 12 15 16 17 17 15 12 11 10 7 6 5 6 6 6 6 6 6 6 6 6 6 6 6 6 5 5 6 6 6 5 5 5 5 4 4 4 4 3
7 8 9 8 7 9 12 15 15 15 14 13 11 9 3 3 5 6 6 7 7 6 6 6 7 7 7 7 6 6 5 5 6 6 5 5 5 5 4 4 4 4 3 3
10 8 9 10 9 9 12 14 14 13 12 12 11 7 5 5 6 6 6 6 6 7 7 7 7 7 6 6 7 7 6 6 6 6 5 5 5 5 4 4 4 4 3 3
8 9 8 8 10 12 5 6 9 11 10 9 6 4 4 4 4 5 5 6 7 7 7 7 7 7 7 7 8 8 7 7 6 5 5 5 5 4 4 4 4 4 3 3
7 8 8 9 11 8 6 6 7 9 9 7 6 4 5 6 6 5 5 6 7 7 7 7 7 8 7 7 8 8 7 7 6 5 5 5 5 5 4 5 4 3 3 3
7 8 9 9 11 10 6 6 4 6 8 5 5 6 6 8 7 5 6 7 8 8 7 7 8 8 8 7 7 7 7 6 5 5 5 5 5 5 4 5 4 4 3 3
11 10 13 11 10 5 4 5 6 9 3 3 3 5 6 4 1 7 8 8 8 9 9 8 8 8 7 7 8 8 7 6 5 6 6 6 6 5 5 5 4 4 4 4
9 10 11 10 11 6 4 5 4 3 4 2 2 4 4 5 7 9 9 9 10 9 9 9 9 8 7 7 8 8 8 6 7 7 7 7 6 5 5 6 5 5 4 5
4 3 4 4 2 5 3 2 3 2 2 2 2 4 6 7 8 9 9 9 9 9 9 9 9 9 8 7 8 9 8 7 8 8 8 8 8 7 6 6 6 5 5 5
4 2 3 3 3 2 2 2 1 1 1 1 2 4 6 8 9 10 9 9 9 9 9 9 10 10 9 8 8 9 8 8 9 10 9 8 9 9 9 7 7 6 5 5
2 3 4 5 3 3 3 2 2 2 2 3 4 5 6 9 9 9 9 9 9 9 9 9 9 10 10 9 9 8 8 9 10 10 9 9 9 10 10 11 10 9 8 7
4 3 4 3 2 2 2 2 2 2 3 3 4 5 7 8 10 10 9 9 10 10 9 10 11 11 10 10 9 8 8 9 10 9 9 8 8 8 9 11 12 17 14 16
Wind_Direction
186 203 206 204 213 234 217 211 203 187 174 207 212 209 194 190 200 201 196 193 195 197 192 190 191 193 191 190 191 193 194 190 193 197 200 200 201 203 203 205 196 200 207 205
189 215 213 205 203 214 211 211 200 179 180 215 214 217 206 201 209 208 204 202 199 195 191 191 193 195 196 194 194 194 196 195 199 201 205 208 210 208 208 212 199 206 210 212
203 200 189 193 196 205 211 212 203 191 181 208 221 223 214 207 213 213 212 210 204 199 195 194 196 197 198 197 197 199 199 199 202 202 202 201 199 214 211 212 209 211 214 216
214 183 188 196 201 204 207 210 207 200 206 207 217 233 207 204 208 212 213 211 207 202 199 196 196 198 200 200 198 200 199 202 202 202 208 207 208 211 213 214 214 212 216 221
201 192 195 202 200 204 203 185 205 213 222 230 214 243 215 193 214 215 213 212 209 203 200 198 198 198 200 200 198 198 199 202 201 203 207 211 218 220 218 218 220 225 221 226
191 191 201 203 194 198 171 168 184 214 225 229 221 233 231 205 217 216 210 209 209 203 200 199 198 196 198 199 200 199 198 201 201 203 208 212 219 221 222 223 222 222 223 225
189 192 194 193 183 187 191 186 191 203 214 226 204 226 236 205 216 223 218 209 207 203 199 196 196 195 196 199 200 200 198 200 201 203 207 211 218 220 223 228 227 229 228 223
190 191 190 192 195 189 201 206 214 215 215 206 189 226 222 186 209 219 220 211 203 198 196 194 193 193 194 196 197 197 198 199 199 201 206 210 213 217 223 223 231 228 233 234
195 189 179 192 200 202 200 214 229 242 234 223 202 209 214 197 201 200 198 197 195 192 189 190 191 191 192 192 193 194 195 197 199 201 203 205 209 214 219 218 222 230 231 232
193 181 178 182 192 210 214 206 211 224 219 222 213 214 210 186 193 187 182 179 174 174 174 179 183 187 187 187 188 189 192 194 197 199 202 203 205 208 212 217 219 224 230 235
196 186 172 181 197 191 196 202 210 218 231 229 215 205 177 180 184 183 171 161 156 159 163 169 172 176 177 178 178 179 185 188 191 195 198 201 201 201 204 210 217 219 225 229
199 202 181 187 190 210 202 204 205 208 211 235 243 174 125 155 160 161 149 141 135 137 140 150 157 162 167 172 172 171 177 184 186 186 190 197 198 197 200 201 206 208 215 224
183 196 179 180 190 201 207 208 211 220 218 223 230 187 131 151 153 150 147 140 133 133 132 135 144 151 160 165 165 167 172 177 178 177 181 187 192 192 194 194 195 199 206 217
196 205 217 203 191 185 196 201 207 213 219 219 230 218 169 177 175 161 154 148 142 136 135 138 142 145 148 153 156 161 165 162 163 169 176 179 181 185 187 187 187 189 199 212
203 205 216 217 170 185 196 200 203 214 226 231 227 231 210 196 188 171 163 158 148 138 134 135 139 137 139 141 144 147 149 149 152 157 162 169 171 174 176 178 182 184 194 207
204 210 200 196 187 194 200 201 204 213 225 234 236 230 212 174 165 167 168 166 156 144 135 128 129 128 127 131 136 136 137 137 139 142 148 151 159 158 158 169 175 170 175 179
190 200 203 199 186 194 210 206 206 208 217 227 230 226 178 178 177 173 167 163 155 145 134 130 127 123 123 126 130 133 133 133 135 138 139 140 147 151 158 162 154 147 149 143
192 204 208 198 187 212 186 184 210 213 216 226 234 207 182 176 160 155 161 161 153 143 135 130 124 118 117 118 123 128 131 132 132 132 132 131 138 142 145 138 136 139 136 124
201 206 210 205 204 205 179 182 201 209 215 217 217 184 148 143 144 142 143 145 141 135 128 126 124 121 118 119 124 127 126 127 128 131 133 132 136 139 139 130 134 137 130 118
187 216 220 210 213 213 181 155 181 213 213 188 198 181 163 177 196 157 131 128 125 121 119 120 119 116 114 119 125 125 122 119 123 127 131 131 128 127 126 126 127 126 128 125
184 198 215 211 214 204 121 142 179 209 174 106 170 177 177 191 111 121 129 126 125 122 118 119 119 113 112 118 122 118 113 114 116 115 111 110 109 112 112 110 112 119 122 117
196 194 204 213 217 199 125 176 195 66 56 77 124 142 140 108 108 122 125 127 127 123 121 120 116 110 108 115 119 113 108 111 109 105 101 97 93 96 100 103 102 105 111 109
216 231 208 216 197 84 113 108 61 48 49 66 110 120 122 124 122 122 122 124 123 122 120 118 116 110 104 104 110 109 106 108 107 103 98 94 90 84 86 90 91 93 93 92
184 224 221 198 166 131 119 114 86 63 67 77 117 126 130 128 127 126 123 121 121 119 119 119 117 112 103 98 97 100 103 106 104 98 93 92 89 84 76 71 68 69 69 80
201 194 207 208 183 166 145 106 73 73 86 102 113 124 132 130 129 126 123 123 122 119 116 115 113 109 104 101 99 99 103 107 104 99 96 92 86 84 77 68 56 61 53 49
222 226 224 199 163 204 150 85 63 83 95 108 120 125 129 129 129 126 122 122 122 119 116 112 109 107 104 101 95 92 96 105 107 105 100 97 95 93 94 92 80 62 65 63
Height
1495 1494 1491 1488 1487 1485 1486 1488 1492 1493 1494 1495 1495 1497 1499 1504 1506 1508 1512 1516 1520 1523 1527 1531 1534 1537 1540 1542 1545 1547 1551 1553 1555 1558 1560 1562 1564 1565 1567 1568 1569 1570 1572 1573
1494 1490 1485 1485 1488 1490 1490 1492 1493 1496 1496 1495 1496 1496 1496 1501 1503 1505 1509 1513 1517 1521 1525 1528 1531 1534 1537 1539 1542 1545 1548 1551 1553 1556 1558 1560 1562 1564 1566 1567 1568 1569 1570 1572
1485 1482 1486 1490 1492 1493 1491 1491 1492 1496 1497 1495 1497 1499 1496 1497 1501 1504 1506 1510 1513 1517 1520 1524 1527 1530 1533 1536 1539 1542 1545 1548 1550 1553 1556 1558 1559 1562 1564 1565 1566 1567 1568 1570
1482 1484 1488 1490 1490 1490 1493 1488 1491 1495 1499 1497 1498 1502 1492 1492 1496 1499 1502 1505 1508 1512 1516 1520 1523 1526 1529 1532 1536 1539 1541 1544 1547 1550 1553 1555 1557 1559 1561 1563 1564 1565 1566 1567
1482 1484 1487 1487 1486 1487 1486 1490 1493 1494 1496 1496 1496 1500 1488 1488 1492 1492 1495 1500 1503 1508 1512 1515 1519 1522 1526 1529 1532 1535 1538 1541 1544 1546 1549 1552 1554 1557 1559 1560 1561 1562 1564 1565
1477 1482 1482 1482 1483 1487 1489 1493 1495 1494 1494 1506 1496 1499 1493 1483 1485 1485 1490 1495 1499 1503 1508 1512 1516 1519 1522 1525 1528 1531 1533 1536 1540 1542 1545 1548 1550 1553 1555 1557 1558 1559 1561 1561
1482 1481 1480 1481 1485 1488 1489 1494 1505 1509 1508 1502 1489 1497 1488 1478 1481 1484 1487 1491 1495 1499 1503 1508 1511 1515 1517 1521 1524 1526 1529 1532 1535 1538 1541 1544 1546 1549 1551 1553 1555 1556 1557 1558
1481 1483 1478 1478 1479 1483 1485 1485 1494 1504 1503 1494 1496 1495 1481 1479 1483 1486 1488 1490 1493 1496 1500 1503 1507 1510 1513 1516 1519 1522 1525 1528 1531 1534 1536 1539 1542 1544 1547 1549 1551 1553 1554 1555
1471 1474 1472 1474 1474 1476 1483 1481 1473 1484 1486 1491 1488 1485 1481 1480 1482 1485 1487 1489 1492 1494 1497 1501 1504 1507 1510 1513 1515 1518 1521 1524 1527 1529 1532 1535 1537 1540 1542 1545 1547 1549 1550 1551
1462 1471 1472 1473 1475 1476 1473 1475 1482 1487 1497 1499 1490 1488 1482 1479 1479 1481 1485 1487 1490 1493 1496 1499 1502 1505 1508 1510 1513 1515 1518 1521 1523 1526 1528 1531 1533 1535 1538 1541 1543 1544 1546 1547
1461 1469 1473 1474 1476 1475 1478 1478 1477 1479 1480 1489 1494 1486 1469 1473 1476 1479 1483 1487 1490 1493 1495 1498 1501 1504 1506 1509 1511 1513 1515 1518 1521 1523 1525 1528 1530 1532 1534 1536 1538 1540 1542 1543
1461 1462 1469 1470 1468 1466 1469 1471 1475 1484 1488 1483 1481 1481 1471 1474 1477 1480 1484 1488 1491 1493 1495 1497 1500 1503 1505 1507 1509 1511 1513 1516 1518 1520 1523 1525 1527 1529 1531 1533 1535 1537 1538 1540
1462 1465 1475 1478 1478 1472 1470 1468 1469 1472 1477 1481 1483 1480 1472 1475 1477 1481 1484 1488 1491 1493 1495 1497 1499 1501 1504 1506 1508 1510 1512 1514 1517 1519 1521 1523 1524 1526 1528 1530 1532 1534 1535 1537
1462 1463 1463 1467 1463 1464 1470 1469 1469 1471 1478 1478 1477 1471 1471 1474 1477 1481 1484 1488 1491 1493 1495 1497 1499 1500 1502 1504 1506 1508 1510 1513 1515 1517 1519 1521 1522 1524 1526 1528 1530 1531 1532 1534
1460 1462 1460 1455 1454 1457 1463 1466 1467 1470 1468 1471 1470 1468 1467 1471 1476 1481 1484 1487 1490 1493 1495 1497 1498 1500 1502 1503 1505 1507 1510 1511 1513 1515 1517 1518 1520 1522 1524 1526 1527 1528 1529 1531
1460 1461 1460 1462 1459 1459 1462 1462 1464 1466 1466 1466 1465 1467 1466 1472 1477 1481 1484 1487 1490 1493 1495 1496 1498 1499 1501 1503 1505 1506 1508 1510 1512 1514 1515 1516 1517 1519 1522 1523 1525 1526 1527 1528
1459 1462 1464 1463 1460 1464 1469 1461 1462 1463 1463 1464 1467 1467 1469 1473 1477 1481 1484 1487 1490 1492 1495 1497 1498 1499 1501 1502 1504 1506 1508 1510 1511 1513 1515 1516 1517 1519 1521 1522 1523 1524 1525 1526
1460 1462 1461 1459 1467 1478 1461 1456 1457 1460 1462 1462 1463 1466 1470 1475 1479 1482 1485 1487 1490 1492 1495 1497 1498 1500 1501 1503 1504 1506 1508 1510 1511 1513 1514 1515 1517 1518 1520 1520 1522 1523 1524 1525
1461 1461 1459 1460 1466 1465 1462 1460 1461 1463 1464 1464 1466 1469 1473 1477 1479 1483 1485 1488 1490 1492 1495 1496 1498 1500 1501 1503 1505 1507 1509 1510 1511 1513 1514 1515 1516 1518 1519 1519 1520 1522 1523 1523
1463 1462 1459 1461 1466 1470 1460 1459 1463 1464 1467 1466 1468 1471 1474 1475 1474 1480 1486 1488 1490 1493 1495 1497 1499 1500 1502 1503 1505 1507 1509 1510 1512 1513 1514 1515 1516 1517 1518 1518 1519 1520 1521 1522
1461 1463 1459 1460 1462 1457 1458 1462 1465 1470 1468 1468 1469 1471 1474 1474 1475 1482 1485 1488 1491 1493 1495 1497 1499 1501 1502 1504 1506 1507 1509 1510 1512 1513 1514 1514 1515 1516 1517 1518 1519 1520 1521 1522
1455 1457 1460 1458 1462 1463 1461 1462 1463 1466 1470 1470 1471 1473 1476 1478 1479 1482 1485 1488 1491 1494 1496 1498 1500 1501 1503 1505 1507 1508 1509 1511 1512 1513 1514 1514 1515 1516 1517 1518 1519 1520 1521 1522
1456 1455 1452 1456 1460 1463 1464 1466 1469 1470 1471 1472 1473 1474 1476 1479 1481 1484 1486 1489 1491 1494 1496 1499 1500 1502 1504 1506 1507 1508 1509 1511 1512 1513 1514 1515 1515 1516 1517 1518 1519 1520 1521 1522
1459 1462 1459 1460 1462 1465 1467 1468 1470 1471 1472 1473 1474 1476 1477 1479 1482 1484 1487 1489 1492 1495 1497 1499 1501 1503 1504 1506 1508 1509 1510 1511 1513 1513 1514 1516 1516 1517 1518 1518 1519 1520 1521 1522
1458 1461 1460 1461 1464 1466 1468 1469 1471 1472 1472 1473 1475 1476 1478 1480 1482 1485 1487 1490 1493 1495 1498 1500 1502 1503 1505 1507 1509 1510 1511 1513 1514 1515 1516 1517 1518 1518 1518 1519 1520 1521 1522 1523
1460 1461 1460 1459 1464 1465 1468 1470 1471 1472 1472 1474 1475 1477 1479 1481 1483 1486 1488 1491 1493 1496 1499 1501 1503 1505 1506 1508 1509 1511 1512 1514 1515 1516 1518 1519 1520 1520 1521 1521 1522 1523 1524 1525